Location: Baia Mare
(47.6567°N, 23.5850°E)
Time: 03:02:51
(UTC+03:00)

ISS - Pass Details

Date: 10 September 2018
Orbit: 402 x 408 km, 51.6° (Epoch: 20 September)

Event Time Altitude Azimuth Distance (km) Brightness Sun altitude
Exits shadow 03:57:50 20° 57° (ENE) 992 -1.2 -27.3°
Drops below altitude 10° 03:59:03 10° 64° (ENE) 1,462 -0.1 -27.2°
Sets 04:01:09 0° 69° (ENE) 2,323 1.1 -26.9°
